Overview Statistics Trail Chart Weather Telemetry Raw packets
 

This is the latest recevied weather packets stored in our database for station/object VK5GR-12. If no packets are shown the sender has not sent any weather packets the latest 10 day(s).

<< 4 5 6 7 8 9 10 >>
Time Temp. Humidity Pressure Rain* Wind** Luminosity Snow
1788536327 15.56° C 80% 1009.2 hPa 0 mm - 0 W/m² -
1788535424 16.11° C 78% 1009.2 hPa 0 mm - 0 W/m² -
1788534520 16.67° C 76% 1009.2 hPa 0 mm - 0 W/m² -
1788533615 16.67° C 73% 1009 hPa 0 mm - 0 W/m² -
1788532713 16.67° C 73% 1008.8 hPa 0 mm - 0 W/m² -
1788531807 16.67° C 74% 1008.7 hPa 0 mm - 0 W/m² -
1788530905 16.67° C 74% 1008.8 hPa 0 mm - 0 W/m² -
1788529999 17.22° C 74% 1009.1 hPa 0 mm - 0 W/m² -
1788529095 17.22° C 72% 1009.1 hPa 0 mm - 0 W/m² -
1788528192 17.22° C 72% 1008.9 hPa 0 mm - 0 W/m² -
1788527287 17.22° C 72% 1008.7 hPa 0 mm - 0 W/m² -
1788526384 17.22° C 72% 1008.7 hPa 0 mm - 0 W/m² -
1788525481 17.22° C 73% 1008.9 hPa 0 mm - 0 W/m² -
1788524577 17.22° C 73% 1009.1 hPa 0 mm - 0 W/m² -
1788523676 17.78° C 73% 1009.1 hPa 0 mm - 0 W/m² -
1788522774 17.78° C 71% 1009.5 hPa 0 mm - 0 W/m² -
1788521869 18.33° C 71% 1009.6 hPa 0 mm - 0 W/m² -
1788520965 18.33° C 71% 1009.6 hPa 0 mm - 0 W/m² -
1788520063 18.33° C 70% 1009.8 hPa 0 mm - 0 W/m² -
1788519164 18.33° C 70% 1009.6 hPa 0 mm - 0 W/m² -
1788518263 17.78° C 75% 1009.8 hPa 0 mm - 0 W/m² -
1788517360 18.89° C 69% 1009.2 hPa 0 mm - 0 W/m² -
1788516459 18.33° C 73% 1009.7 hPa 0 mm - 0 W/m² -
1788515555 18.89° C 73% 1009.8 hPa 0 mm - 0 W/m² -
1788514653 18.33° C 76% 1009.4 hPa 0 mm - 0 W/m² -

* Rain latest hour (hover to see other rain measurements)
** Current wind speed in m/s (hover to see current wind gust speed)